Flag for Iran Weather past 2 weeks in Esfahãn, Iran

Now
88 °F

Duststorm.


Feels Like: 84 °F
Forecast: 60 / 87 °F
Wind: 14 mph from West

Location: Esfahan

Current Time: May 25, 2015 at 3:10:55 PM

Latest Report: May 25, 2015 at 2:30 PM


Visibility: 3 mi

Pressure: 29.98 "Hg

Humidity: 7%

Dew point: 18 °F

Location of EsfahãnLocation

Historic Weather in Esfahãn — Graph

°F

Esfahãn temperature yesterday

Maximum temperature yesterday: 91 °F (at 4:30 PM)
Minimum temperature yesterday: 54 °F (at 5:00 AM)
Average temperature yesterday: 74 °F

Past Weeks' High & Low Weather Summary

 TemperatureHumidityPressure
High93 °F (May 23, 3:30 PM)76% (May 11, 7:00 AM)30.21 "Hg (May 11, 7:00 AM)
Low46 °F (May 17, 6:00 AM)2% (May 20, 1:30 PM)29.89 "Hg (May 10, 2:00 PM)
Average72 °F21%30.05 "Hg
* Reported May 10 1:30 PM — May 25 2:00 PM, Esfahãn, Weather by CustomWeather, © 2015

Note: Actual official high and low records may vary slightly from our data, if they occured in-between our weather recording intervals... More about our weather records

Advertising

Esfahãn weather history for previous 24 hours

 ConditionsComfort  
Time TempWeatherWind HumidityBarometerVisibility
2:00 PM
Mon, May 25
88 °FDuststorm.12 mph8%30.01 "Hg3 mi
1:30 PM86 °FSandstorm.21 mph9%30.01 "Hg3 mi
1:00 PM86 °FDuststorm.14 mph9%30.01 "Hg3 mi
12:30 PM86 °FDuststorm.21 mph9%30.04 "Hg4 mi
12:00 PM84 °FDuststorm.12 mph10%30.04 "Hg3 mi
11:30 AM84 °FDuststorm.14 mph10%30.04 "Hg4 mi
11:00 AM82 °FDuststorm.14 mph13%30.04 "Hg3 mi
10:30 AM82 °FDuststorm.7 mph15%30.04 "Hg2 mi
10:00 AM81 °FDuststorm.7 mph16%30.07 "Hg2 mi
9:30 AM77 °FDuststorm.5 mph17%30.07 "Hg2 mi
9:00 AM73 °FDuststorm.7 mph17%30.07 "Hg1 mi
8:30 AM72 °FDuststorm.7 mph19%30.07 "Hg1 mi
8:00 AM66 °FDuststorm.9 mph21%30.04 "Hg2 mi
7:30 AM59 °FDuststorm.7 mph29%30.04 "Hg3 mi
7:00 AM57 °FClear.5 mph31%30.04 "Hg4 mi
6:30 AM59 °FClear.5 mph29%30.04 "Hg4 mi
6:00 AM59 °FClear.5 mph29%30.04 "Hg4 mi
5:30 AM59 °FClear.5 mph27%30.01 "Hg4 mi
5:00 AM61 °FClear.5 mph25%30.01 "Hg4 mi
4:30 AM61 °FClear.7 mph25%30.01 "Hg4 mi
4:00 AM59 °FClear.7 mph25%30.01 "Hg10 mi
3:30 AM63 °FClear.5 mph20%30.01 "Hg4 mi
3:00 AM61 °FClear.5 mph25%30.01 "Hg4 mi
2:30 AM63 °FClear.5 mph22%30.04 "Hg4 mi
2:00 AM64 °FClear.7 mph19%30.04 "Hg5 mi
1:30 AM59 °FClear.9 mph23%30.04 "Hg5 mi
1:00 AM63 °FClear.9 mph20%30.04 "Hg10 mi
12:30 AM64 °FClear.9 mph18%30.04 "Hg10 mi
12:00 AM68 °FClear.7 mph17%30.04 "Hg10 mi
11:30 PM
Sun, May 24
68 °FClear.7 mph17%30.04 "Hg10 mi
11:00 PM72 °FClear.12 mph14%30.04 "Hg10 mi
10:30 PM72 °FClear.9 mph14%30.04 "Hg10 mi
10:00 PM73 °FClear.12 mph14%30.01 "Hg5 mi
9:30 PM75 °FClear.9 mph10%30.01 "Hg5 mi
9:00 PM77 °FClear.14 mph10%30.01 "Hg4 mi
8:30 PM81 °FClear.16 mph9%29.98 "Hg4 mi
8:00 PM82 °FPassing clouds.18 mph7%29.98 "Hg4 mi
7:30 PM84 °FPassing clouds.18 mph8%29.98 "Hg4 mi
7:00 PM86 °FPassing clouds.22 mph6%29.98 "Hg4 mi
6:30 PM88 °FPassing clouds.24 mph6%29.98 "Hg4 mi
6:00 PM90 °FPassing clouds.21 mph6%29.98 "Hg4 mi
5:30 PM90 °FPassing clouds.21 mph7%29.98 "Hg4 mi
5:00 PM91 °FPassing clouds.18 mph7%29.98 "Hg4 mi
4:30 PM91 °FPassing clouds.18 mph7%29.98 "Hg4 mi
4:00 PM90 °FPassing clouds.18 mph8%29.98 "Hg4 mi
3:30 PM90 °FPassing clouds.12 mph8%29.98 "Hg4 mi
3:00 PM90 °FClear.9 mph9%30.01 "Hg4 mi
Weather by CustomWeather, © 2015

See weather overviewHow to use our weather pages